contact:dominique.lefevre@mio.osupytheas.fr, maurice.libes@osupytheas.fr, didier.mallarino@osupytheas.fr
Project:EMSO http://www.emso-fr.org/EMSO-France
Depth: 2436.0 m
Title:EMSO Ligure Ouest : Data MII capteur AQUADOPP
Date,Latitude,Longitude,X_East,Y_North,Z_Up,Amplitude_X,Amplitude_Y,Amplitude_Z,Batterie,SoundSpeed,Heading,Pitch,Roll,Pressure,TIS,Speed,Direction
, degrees North, degrees East, m.s-1, m.s-1,m.s-1, 1, 1, 1, Volt, m.s-1, degree, degree, degree, dbar, degree_C, m.s-1, degree
2021-02-04T00:04:03,42.805,6.029,-0.006,-0.031,-0.021,110.0,109.0,105.0,13.4,1505.2,324.5,-0.8,1.8,2470.632,13.29,0.031,191.0
2021-02-04T00:07:03,42.805,6.029,-0.018,-0.042,-0.024,109.0,109.0,105.0,13.4,1505.2,324.8,-0.7,1.8,2470.596,13.3,0.045,203.2
2021-02-04T00:10:03,42.805,6.029,-0.002,-0.037,-0.016,109.0,110.0,105.0,13.3,1505.3,327.9,-0.7,1.8,2470.574,13.31,0.037,183.1
2021-02-04T00:13:03,42.805,6.029,0.007,-0.035,0.016,110.0,110.0,105.0,13.4,1505.3,323.9,-0.7,1.8,2470.604,13.31,0.035,168.7
2021-02-04T00:16:03,42.805,6.029,-0.015,-0.028,-0.019,109.0,110.0,106.0,13.3,1505.3,326.6,-0.7,1.8,2470.569,13.32,0.031,208.2
2021-02-04T00:19:03,42.805,6.029,0.015,-0.057,-0.021,108.0,110.0,105.0,13.4,1505.3,325.1,-0.7,1.8,2470.601,13.32,0.058,165.3
2021-02-04T00:22:03,42.805,6.029,-0.018,-0.042,-0.016,108.0,109.0,105.0,13.3,1505.3,326.6,-0.7,1.8,2470.579,13.32,0.045,203.2
2021-02-04T00:25:03,42.805,6.029,0.004,-0.046,0.012,109.0,109.0,105.0,13.4,1505.3,326.0,-0.7,1.8,2470.585,13.32,0.046,175.0
2021-02-04T00:28:03,42.805,6.029,0.0,-0.05,0.005,108.0,110.0,104.0,13.4,1505.3,323.5,-0.7,1.8,2470.533,13.32,0.05,180.0
2021-02-04T00:31:03,42.805,6.029,0.002,-0.061,0.015,108.0,109.0,106.0,13.4,1505.3,322.8,-0.7,1.9,2470.525,13.32,0.061,178.1
2021-02-04T00:34:03,42.805,6.029,-0.018,-0.031,0.0,110.0,109.0,105.0,13.4,1505.3,325.3,-0.7,1.8,2470.484,13.32,0.035,210.1
2021-02-04T00:37:03,42.805,6.029,-0.016,-0.047,-0.025,108.0,108.0,104.0,13.4,1505.3,327.2,-0.7,1.8,2470.534,13.32,0.049,198.8
2021-02-04T00:40:03,42.805,6.029,-0.021,-0.046,-0.033,109.0,111.0,105.0,13.4,1505.3,326.0,-0.7,1.8,2470.533,13.32,0.05,204.5
2021-02-04T00:43:03,42.805,6.029,0.002,-0.026,-0.01,109.0,111.0,105.0,13.4,1505.3,327.4,-0.7,1.8,2470.52,13.32,0.026,175.6
2021-02-04T00:46:03,42.805,6.029,0.009,-0.041,-0.026,109.0,110.0,106.0,13.3,1505.3,327.2,-0.7,1.8,2470.5,13.32,0.041,167.6
2021-02-04T00:49:03,42.805,6.029,-0.008,-0.026,-0.018,109.0,109.0,105.0,13.3,1505.3,326.2,-0.7,1.8,2470.525,13.32,0.027,197.1
2021-02-04T00:52:03,42.805,6.029,-0.003,-0.046,-0.002,109.0,109.0,105.0,13.3,1505.3,326.1,-0.7,1.8,2470.52,13.32,0.046,183.7
2021-02-04T00:55:03,42.805,6.029,0.008,-0.055,0.01,109.0,109.0,105.0,13.4,1505.3,325.1,-0.7,1.9,2470.544,13.32,0.055,171.7
2021-02-04T00:58:03,42.805,6.029,-0.007,-0.044,-0.014,108.0,110.0,104.0,13.4,1505.3,323.8,-0.7,1.8,2470.478,13.32,0.044,189.0
2021-02-04T01:04:03,42.805,6.029,-0.006,-0.036,-0.025,111.0,109.0,105.0,13.4,1505.2,326.5,-0.7,1.8,2470.567,13.3,0.036,189.5
2021-02-04T01:07:03,42.805,6.029,-0.024,-0.049,-0.021,108.0,109.0,105.0,13.4,1505.3,325.4,-0.7,1.8,2470.54,13.31,0.054,206.1
2021-02-04T01:10:03,42.805,6.029,-0.016,-0.047,-0.021,108.0,108.0,105.0,13.3,1505.3,327.2,-0.7,1.8,2470.553,13.31,0.049,198.8
2021-02-04T01:13:03,42.805,6.029,-0.019,-0.049,-0.025,110.0,109.0,105.0,13.4,1505.3,325.5,-0.7,1.8,2470.544,13.32,0.052,201.2
2021-02-04T01:16:03,42.805,6.029,-0.006,-0.029,0.001,108.0,108.0,105.0,13.4,1505.3,324.6,-0.7,1.8,2470.521,13.32,0.029,191.7
2021-02-04T01:19:03,42.805,6.029,-0.017,-0.036,-0.012,107.0,108.0,105.0,13.4,1505.3,326.4,-0.7,1.8,2470.53,13.32,0.039,205.3
2021-02-04T01:22:03,42.805,6.029,-0.008,-0.033,-0.028,108.0,108.0,104.0,13.4,1505.3,326.4,-0.6,1.8,2470.513,13.32,0.033,193.6
2021-02-04T01:25:03,42.805,6.029,-0.008,-0.048,0.008,109.0,108.0,104.0,13.4,1505.3,324.1,-0.7,1.9,2470.503,13.32,0.048,189.5
2021-02-04T01:28:03,42.805,6.029,0.015,-0.039,-0.007,109.0,108.0,105.0,13.4,1505.3,326.7,-0.7,1.8,2470.489,13.32,0.041,159.0
2021-02-04T01:31:03,42.805,6.029,0.001,-0.057,0.008,108.0,107.0,103.0,13.4,1505.3,326.5,-0.7,1.8,2470.562,13.32,0.057,179.0
2021-02-04T01:34:03,42.805,6.029,0.001,-0.039,-0.013,108.0,108.0,104.0,13.4,1505.3,327.6,-0.7,1.8,2470.528,13.32,0.039,178.5
2021-02-04T01:37:03,42.805,6.029,-0.011,-0.041,-0.012,108.0,109.0,104.0,13.4,1505.3,326.4,-0.7,1.8,2470.518,13.32,0.042,195.0
2021-02-04T01:40:03,42.805,6.029,0.007,-0.028,-0.023,108.0,107.0,105.0,13.4,1505.3,326.2,-0.7,1.8,2470.506,13.32,0.028,166.0
2021-02-04T01:43:03,42.805,6.029,0.025,-0.03,-0.017,108.0,108.0,105.0,13.4,1505.3,328.5,-0.6,1.9,2470.511,13.32,0.039,140.2
2021-02-04T01:46:03,42.805,6.029,-0.014,-0.05,-0.014,108.0,109.0,104.0,13.4,1505.3,323.5,-0.7,1.8,2470.528,13.32,0.051,195.6
2021-02-04T01:49:03,42.805,6.029,-0.008,-0.019,0.009,108.0,109.0,105.0,13.4,1505.3,326.1,-0.7,1.8,2470.525,13.32,0.02,202.8
2021-02-04T01:52:03,42.805,6.029,0.003,-0.043,-0.02,109.0,109.0,104.0,13.3,1505.3,325.8,-0.7,1.8,2470.5,13.32,0.043,176.0
2021-02-04T01:55:03,42.805,6.029,-0.014,-0.043,0.002,109.0,109.0,106.0,13.3,1505.3,327.7,-0.7,1.8,2470.519,13.32,0.045,198.0
2021-02-04T01:58:03,42.805,6.029,-0.003,-0.045,-0.015,108.0,108.0,106.0,13.4,1505.3,324.1,-0.7,1.8,2470.465,13.32,0.045,183.8
2021-02-04T02:04:03,42.805,6.029,-0.002,-0.055,0.004,110.0,109.0,106.0,13.3,1505.2,324.4,-0.7,1.8,2470.506,13.3,0.055,182.1
2021-02-04T02:07:03,42.805,6.029,0.012,-0.028,0.004,109.0,109.0,105.0,13.4,1505.3,327.4,-0.7,1.8,2470.482,13.31,0.03,156.8
2021-02-04T02:10:03,42.805,6.029,-0.001,-0.022,0.015,109.0,109.0,105.0,13.3,1505.3,322.8,-0.7,1.8,2470.529,13.32,0.022,182.6
2021-02-04T02:13:03,42.805,6.029,0.004,-0.044,0.006,109.0,110.0,104.0,13.4,1505.3,322.7,-0.7,1.8,2470.531,13.32,0.044,174.8
2021-02-04T02:16:03,42.805,6.029,-0.054,-0.045,-0.039,108.0,109.0,105.0,13.4,1505.3,326.5,-0.7,1.9,2470.518,13.32,0.07,230.2
2021-02-04T02:19:03,42.805,6.029,0.0,-0.038,-0.012,110.0,110.0,104.0,13.4,1505.3,325.3,-0.7,1.9,2470.506,13.32,0.038,180.0
2021-02-04T02:22:03,42.805,6.029,-0.028,-0.046,-0.019,110.0,110.0,105.0,13.4,1505.3,324.9,-0.7,1.9,2470.547,13.32,0.053,211.3
2021-02-04T02:25:03,42.805,6.029,0.0,-0.05,0.006,109.0,109.0,106.0,13.3,1505.3,322.7,-0.7,1.8,2470.481,13.32,0.05,180.0
2021-02-04T02:28:03,42.805,6.029,-0.007,-0.034,-0.02,110.0,111.0,105.0,13.4,1505.3,324.5,-0.7,1.8,2470.506,13.32,0.034,191.6
2021-02-04T02:31:03,42.805,6.029,-0.01,-0.045,-0.005,109.0,111.0,105.0,13.4,1505.3,325.4,-0.7,1.8,2470.499,13.32,0.046,192.5
2021-02-04T02:34:03,42.805,6.029,-0.005,-0.043,-0.015,110.0,111.0,106.0,13.4,1505.3,324.8,-0.7,1.8,2470.464,13.32,0.043,186.6
2021-02-04T02:37:03,42.805,6.029,-0.011,-0.048,0.019,110.0,110.0,104.0,13.3,1505.3,326.6,-0.7,1.8,2470.473,13.32,0.049,192.9
2021-02-04T02:40:03,42.805,6.029,-0.014,-0.027,-0.022,110.0,110.0,104.0,13.4,1505.3,326.8,-0.7,1.8,2470.471,13.32,0.03,207.4
2021-02-04T02:43:03,42.805,6.029,-0.006,-0.057,-0.026,110.0,109.0,104.0,13.4,1505.3,325.7,-0.7,1.8,2470.464,13.32,0.057,186.0
2021-02-04T02:46:03,42.805,6.029,0.005,-0.045,-0.001,108.0,109.0,105.0,13.4,1505.3,324.8,-0.7,1.8,2470.485,13.32,0.045,173.7
2021-02-04T02:49:03,42.805,6.029,0.007,-0.045,-0.018,109.0,111.0,106.0,13.4,1505.3,327.1,-0.7,1.8,2470.483,13.32,0.045,171.2
2021-02-04T02:52:03,42.805,6.029,-0.017,-0.059,-0.026,110.0,111.0,105.0,13.4,1505.3,323.5,-0.7,1.8,2470.491,13.32,0.061,196.1
2021-02-04T02:55:03,42.805,6.029,-0.014,-0.047,-0.03,109.0,111.0,105.0,13.4,1505.3,323.4,-0.7,1.8,2470.46,13.32,0.049,196.6
2021-02-04T02:58:03,42.805,6.029,-0.041,-0.039,-0.029,109.0,110.0,106.0,13.4,1505.3,327.0,-0.7,1.8,2470.519,13.32,0.056,226.4
2021-02-04T03:04:03,42.805,6.029,-0.033,-0.038,0.012,110.0,109.0,105.0,13.3,1505.2,327.2,-0.8,1.9,2470.507,13.3,0.05,221.0
2021-02-04T03:07:03,42.805,6.029,0.012,-0.058,0.021,109.0,110.0,104.0,13.3,1505.3,326.5,-0.7,1.8,2470.549,13.31,0.059,168.3
2021-02-04T03:10:03,42.805,6.029,-0.008,-0.049,-0.015,109.0,110.0,106.0,13.3,1505.3,326.6,-0.7,1.8,2470.486,13.31,0.049,189.3
2021-02-04T03:13:03,42.805,6.029,-0.005,-0.023,0.011,110.0,109.0,107.0,13.4,1505.3,326.1,-0.7,1.8,2470.487,13.32,0.023,192.3
2021-02-04T03:16:03,42.805,6.029,-0.004,-0.045,0.016,110.0,110.0,106.0,13.4,1505.3,325.3,-0.7,1.8,2470.491,13.32,0.045,185.1
2021-02-04T03:19:03,42.805,6.029,-0.024,-0.027,-0.025,110.0,109.0,105.0,13.3,1505.3,327.0,-0.7,1.8,2470.452,13.32,0.036,221.6
2021-02-04T03:22:03,42.805,6.029,0.008,-0.045,-0.003,109.0,109.0,104.0,13.4,1505.3,326.1,-0.7,1.8,2470.489,13.32,0.045,169.9
2021-02-04T03:25:03,42.805,6.029,-0.01,-0.058,0.013,110.0,109.0,104.0,13.4,1505.3,326.2,-0.7,1.8,2470.474,13.32,0.058,189.8
2021-02-04T03:28:03,42.805,6.029,-0.003,-0.053,-0.028,108.0,110.0,105.0,13.4,1505.3,324.8,-0.7,1.8,2470.49,13.32,0.053,183.2
2021-02-04T03:31:03,42.805,6.029,-0.004,-0.032,0.035,109.0,110.0,105.0,13.4,1505.3,325.0,-0.7,1.8,2470.479,13.32,0.032,187.1
2021-02-04T03:34:03,42.805,6.029,-0.017,-0.042,0.003,110.0,109.0,106.0,13.3,1505.3,324.0,-0.7,1.8,2470.436,13.32,0.045,202.0
2021-02-04T03:37:03,42.805,6.029,0.0,-0.035,0.012,109.0,110.0,105.0,13.4,1505.3,323.9,-0.7,1.8,2470.518,13.32,0.035,180.0
2021-02-04T03:40:03,42.805,6.029,-0.006,-0.051,0.015,111.0,109.0,105.0,13.4,1505.3,327.3,-0.7,1.8,2470.484,13.32,0.051,186.7
2021-02-04T03:43:03,42.805,6.029,-0.026,-0.044,-0.01,110.0,110.0,105.0,13.4,1505.3,324.1,-0.7,1.9,2470.423,13.32,0.051,210.6
2021-02-04T03:46:03,42.805,6.029,-0.002,-0.049,0.025,109.0,108.0,105.0,13.3,1505.3,327.5,-0.7,1.9,2470.43,13.32,0.049,182.3
2021-02-04T03:49:03,42.805,6.029,-0.021,-0.062,0.011,110.0,108.0,105.0,13.4,1505.3,327.8,-0.7,1.9,2470.454,13.32,0.065,198.7
2021-02-04T03:52:03,42.805,6.029,-0.037,-0.05,-0.017,109.0,109.0,105.0,13.4,1505.3,325.9,-0.6,1.8,2470.484,13.32,0.062,216.5
2021-02-04T03:55:03,42.805,6.029,-0.027,-0.038,0.016,109.0,109.0,106.0,13.3,1505.3,327.0,-0.7,1.9,2470.462,13.32,0.046,215.4
2021-02-04T03:58:03,42.805,6.029,-0.029,-0.053,0.006,108.0,111.0,105.0,13.4,1505.3,325.5,-0.7,1.8,2470.414,13.32,0.06,208.7
2021-02-04T04:04:03,42.805,6.029,-0.006,-0.026,0.028,110.0,110.0,106.0,13.4,1505.2,324.6,-0.8,1.8,2470.464,13.3,0.026,193.0
2021-02-04T04:07:03,42.805,6.029,-0.017,-0.033,-0.012,109.0,109.0,106.0,13.4,1505.3,325.2,-0.8,1.8,2470.486,13.31,0.037,207.3
2021-02-04T04:10:03,42.805,6.029,-0.011,-0.046,-0.031,109.0,110.0,105.0,13.4,1505.3,324.0,-0.7,1.9,2470.466,13.32,0.047,193.4
2021-02-04T04:13:03,42.805,6.029,-0.019,-0.039,-0.007,110.0,109.0,107.0,13.3,1505.3,326.1,-0.7,1.8,2470.444,13.32,0.043,206.0
2021-02-04T04:16:03,42.805,6.029,-0.016,-0.043,-0.044,110.0,110.0,106.0,13.4,1505.3,325.5,-0.7,1.8,2470.472,13.32,0.045,200.4
2021-02-04T04:19:03,42.805,6.029,-0.009,-0.049,-0.022,110.0,110.0,106.0,13.3,1505.3,328.2,-0.7,1.8,2470.47,13.32,0.049,190.4
2021-02-04T04:22:03,42.805,6.029,-0.008,-0.05,-0.02,109.0,110.0,105.0,13.3,1505.3,324.9,-0.7,1.9,2470.45,13.32,0.05,189.1
2021-02-04T04:25:03,42.805,6.029,-0.027,-0.043,-0.018,110.0,108.0,107.0,13.4,1505.3,324.1,-0.7,1.8,2470.424,13.32,0.05,212.1
2021-02-04T04:28:03,42.805,6.029,-0.005,-0.059,-0.018,110.0,110.0,105.0,13.3,1505.3,324.6,-0.7,1.9,2470.438,13.32,0.059,184.8
2021-02-04T04:31:03,42.805,6.029,-0.026,-0.028,0.028,110.0,109.0,106.0,13.4,1505.3,327.1,-0.7,1.8,2470.418,13.32,0.038,222.9
2021-02-04T04:34:03,42.805,6.029,-0.03,-0.042,-0.007,109.0,109.0,105.0,13.4,1505.3,326.0,-0.7,1.8,2470.41,13.32,0.051,215.5
2021-02-04T04:37:03,42.805,6.029,-0.007,-0.046,-0.013,109.0,110.0,105.0,13.4,1505.3,323.0,-0.7,1.8,2470.454,13.32,0.046,188.7
2021-02-04T04:40:03,42.805,6.029,-0.02,-0.058,0.005,110.0,109.0,104.0,13.3,1505.3,322.8,-0.8,1.8,2470.436,13.32,0.061,199.0
2021-02-04T04:43:03,42.805,6.029,-0.02,-0.056,-0.021,111.0,109.0,105.0,13.4,1505.3,323.5,-0.7,1.9,2470.448,13.33,0.059,199.6
2021-02-04T04:46:03,42.805,6.029,-0.022,-0.056,0.0,111.0,110.0,105.0,13.4,1505.3,326.3,-0.7,1.8,2470.474,13.33,0.06,201.4
2021-02-04T04:49:03,42.805,6.029,0.012,-0.019,0.029,110.0,110.0,106.0,13.4,1505.3,326.0,-0.7,1.8,2470.443,13.33,0.022,147.7
2021-02-04T04:52:03,42.805,6.029,0.002,-0.033,-0.038,110.0,110.0,106.0,13.4,1505.3,326.2,-0.7,1.8,2470.405,13.33,0.033,176.5
2021-02-04T04:55:03,42.805,6.029,-0.025,-0.027,0.007,108.0,110.0,106.0,13.4,1505.3,323.2,-0.7,1.9,2470.441,13.32,0.036,222.8
2021-02-04T04:58:03,42.805,6.029,-0.008,-0.033,0.007,110.0,110.0,105.0,13.4,1505.3,327.6,-0.7,1.8,2470.41,13.32,0.033,193.6
2021-02-04T05:04:03,42.805,6.029,-0.016,-0.035,0.016,110.0,109.0,106.0,13.3,1505.3,324.2,-0.7,1.8,2470.433,13.31,0.038,204.6
2021-02-04T05:07:03,42.805,6.029,-0.01,-0.033,-0.006,110.0,109.0,105.0,13.4,1505.3,326.9,-0.7,1.8,2470.441,13.31,0.034,196.9
2021-02-04T05:10:03,42.805,6.029,-0.009,-0.034,0.006,109.0,109.0,105.0,13.4,1505.3,324.1,-0.7,1.8,2470.411,13.32,0.035,194.8
2021-02-04T05:13:03,42.805,6.029,-0.006,-0.046,-0.003,110.0,110.0,106.0,13.3,1505.3,327.1,-0.7,1.8,2470.406,13.32,0.046,187.4
2021-02-04T05:16:03,42.805,6.029,-0.012,-0.046,-0.002,110.0,109.0,106.0,13.4,1505.3,324.4,-0.7,1.8,2470.443,13.32,0.047,194.6
2021-02-04T05:19:03,42.805,6.029,-0.015,-0.035,0.008,110.0,109.0,105.0,13.4,1505.3,322.8,-0.7,1.9,2470.423,13.32,0.038,203.2
2021-02-04T05:22:03,42.805,6.029,0.002,-0.046,-0.008,110.0,109.0,105.0,13.4,1505.3,324.2,-0.7,1.8,2470.412,13.32,0.046,177.5
2021-02-04T05:25:03,42.805,6.029,-0.001,-0.013,-0.009,110.0,110.0,106.0,13.4,1505.3,323.7,-0.7,1.8,2470.462,13.32,0.013,184.4
2021-02-04T05:28:03,42.805,6.029,-0.003,-0.048,-0.001,110.0,110.0,105.0,13.4,1505.3,324.0,-0.7,1.8,2470.435,13.32,0.048,183.6
2021-02-04T05:31:03,42.805,6.029,-0.022,-0.043,-0.007,108.0,109.0,106.0,13.4,1505.3,323.5,-0.7,1.8,2470.4,13.32,0.048,207.1
2021-02-04T05:34:03,42.805,6.029,-0.016,-0.047,0.017,110.0,110.0,104.0,13.4,1505.3,325.4,-0.7,1.8,2470.415,13.32,0.049,198.8
2021-02-04T05:37:03,42.805,6.029,-0.031,-0.045,-0.015,111.0,110.0,106.0,13.4,1505.3,325.3,-0.7,1.8,2470.405,13.32,0.054,214.6
2021-02-04T05:40:03,42.805,6.029,-0.016,-0.027,-0.015,110.0,110.0,105.0,13.4,1505.3,325.3,-0.7,1.8,2470.397,13.33,0.031,210.7
2021-02-04T05:43:03,42.805,6.029,-0.008,-0.026,0.033,110.0,111.0,105.0,13.4,1505.3,327.1,-0.7,1.8,2470.434,13.33,0.027,197.1
2021-02-04T05:46:03,42.805,6.029,-0.017,-0.047,-0.023,110.0,110.0,106.0,13.4,1505.3,324.5,-0.7,1.8,2470.394,13.33,0.049,199.9
2021-02-04T05:49:03,42.805,6.029,0.007,-0.045,0.024,110.0,109.0,104.0,13.4,1505.3,324.4,-0.7,1.8,2470.415,13.33,0.045,171.2
2021-02-04T05:52:03,42.805,6.029,-0.034,-0.047,-0.014,109.0,109.0,105.0,13.3,1505.3,324.6,-0.7,1.8,2470.385,13.33,0.058,215.9
2021-02-04T05:55:03,42.805,6.029,-0.005,-0.039,-0.004,109.0,109.0,105.0,13.4,1505.3,322.8,-0.7,1.9,2470.454,13.32,0.039,187.3
2021-02-04T05:58:03,42.805,6.029,-0.011,-0.037,0.015,109.0,109.0,105.0,13.4,1505.3,325.5,-0.7,1.8,2470.394,13.33,0.038,196.6
2021-02-04T06:04:03,42.805,6.029,-0.015,-0.041,-0.014,108.0,110.0,106.0,13.3,1505.3,328.2,-0.8,1.8,2470.448,13.31,0.043,200.1
2021-02-04T06:07:03,42.805,6.029,-0.027,-0.028,-0.004,110.0,110.0,106.0,13.4,1505.3,325.2,-0.7,1.8,2470.428,13.31,0.038,224.0
2021-02-04T06:10:03,42.805,6.029,-0.04,-0.034,0.012,110.0,110.0,105.0,13.4,1505.3,328.0,-0.7,1.9,2470.443,13.32,0.052,229.6
2021-02-04T06:13:03,42.805,6.029,0.004,-0.036,-0.005,110.0,111.0,105.0,13.4,1505.3,325.0,-0.7,1.8,2470.414,13.32,0.036,173.7
2021-02-04T06:16:03,42.805,6.029,-0.027,-0.022,-0.013,109.0,110.0,105.0,13.4,1505.3,328.0,-0.7,1.8,2470.418,13.32,0.034,230.8
2021-02-04T06:19:03,42.805,6.029,-0.027,-0.014,-0.026,110.0,109.0,105.0,13.4,1505.3,323.4,-0.7,1.8,2470.411,13.32,0.03,242.6
2021-02-04T06:22:03,42.805,6.029,-0.03,-0.032,0.005,110.0,110.0,105.0,13.4,1505.3,324.4,-0.7,1.9,2470.451,13.32,0.043,223.1
2021-02-04T06:25:03,42.805,6.029,-0.035,-0.026,-0.002,110.0,110.0,106.0,13.4,1505.3,325.9,-0.7,1.8,2470.453,13.32,0.043,233.4
2021-02-04T06:28:03,42.805,6.029,-0.018,-0.043,0.003,110.0,109.0,106.0,13.3,1505.3,323.7,-0.7,1.8,2470.399,13.33,0.046,202.7
2021-02-04T06:31:03,42.805,6.029,-0.038,-0.042,-0.001,111.0,110.0,106.0,13.3,1505.3,324.5,-0.7,1.8,2470.373,13.33,0.056,222.1
2021-02-04T06:34:03,42.805,6.029,0.007,-0.02,0.021,110.0,109.0,107.0,13.3,1505.3,326.5,-0.7,1.8,2470.426,13.33,0.021,160.7
2021-02-04T06:37:03,42.805,6.029,-0.006,-0.034,0.021,111.0,111.0,105.0,13.3,1505.3,327.5,-0.7,1.8,2470.407,13.33,0.034,190.0
2021-02-04T06:40:03,42.805,6.029,0.023,-0.037,0.013,110.0,108.0,106.0,13.3,1505.3,323.1,-0.7,1.8,2470.425,13.33,0.043,148.1
2021-02-04T06:43:03,42.805,6.029,-0.003,-0.032,0.032,110.0,109.0,105.0,13.3,1505.3,324.7,-0.7,1.8,2470.394,13.33,0.032,185.4
2021-02-04T06:46:03,42.805,6.029,-0.024,-0.023,-0.004,111.0,110.0,106.0,13.3,1505.3,325.8,-0.7,1.8,2470.389,13.33,0.033,226.2
2021-02-04T06:49:03,42.805,6.029,-0.009,-0.049,0.018,110.0,111.0,105.0,13.3,1505.3,326.5,-0.7,1.8,2470.411,13.33,0.049,190.4
2021-02-04T06:52:03,42.805,6.029,-0.012,-0.038,0.012,108.0,110.0,105.0,13.4,1505.3,325.0,-0.7,1.8,2470.442,13.33,0.039,197.5
2021-02-04T06:55:03,42.805,6.029,-0.022,-0.028,0.015,109.0,109.0,106.0,13.3,1505.3,327.6,-0.7,1.8,2470.43,13.33,0.035,218.2
2021-02-04T06:58:03,42.805,6.029,-0.017,-0.049,0.015,109.0,109.0,106.0,13.3,1505.3,327.9,-0.7,1.8,2470.428,13.33,0.051,199.1
2021-02-04T07:04:03,42.805,6.029,0.013,-0.036,-0.011,109.0,110.0,105.0,13.4,1505.3,326.5,-0.8,1.9,2470.49,13.31,0.038,160.1
2021-02-04T07:07:03,42.805,6.029,-0.029,-0.032,-0.017,109.0,109.0,105.0,13.4,1505.3,322.5,-0.8,1.8,2470.452,13.31,0.043,222.2
2021-02-04T07:10:03,42.805,6.029,-0.01,-0.045,0.012,109.0,109.0,105.0,13.4,1505.3,325.8,-0.7,1.9,2470.457,13.32,0.046,192.5
2021-02-04T07:13:03,42.805,6.029,-0.002,-0.037,-0.004,109.0,109.0,105.0,13.4,1505.3,326.7,-0.7,1.8,2470.43,13.32,0.037,183.1
2021-02-04T07:16:03,42.805,6.029,0.016,-0.039,-0.007,109.0,109.0,105.0,13.4,1505.3,323.4,-0.7,1.8,2470.421,13.32,0.042,157.7
2021-02-04T07:19:03,42.805,6.029,-0.022,-0.039,-0.004,110.0,108.0,104.0,13.4,1505.3,322.8,-0.7,1.8,2470.455,13.33,0.044,209.4
2021-02-04T07:22:03,42.805,6.029,-0.021,-0.046,-0.011,108.0,110.0,104.0,13.4,1505.3,326.3,-0.7,1.8,2470.428,13.33,0.05,204.5
2021-02-04T07:25:03,42.805,6.029,-0.008,-0.038,-0.017,108.0,111.0,105.0,13.4,1505.3,324.7,-0.7,1.8,2470.442,13.33,0.038,191.9
2021-02-04T07:28:03,42.805,6.029,-0.008,-0.009,0.007,109.0,110.0,105.0,13.4,1505.3,328.2,-0.7,1.8,2470.445,13.33,0.012,221.6
2021-02-04T07:31:03,42.805,6.029,-0.011,-0.029,-0.008,109.0,110.0,106.0,13.4,1505.3,326.4,-0.7,1.8,2470.429,13.33,0.031,200.8
2021-02-04T07:34:03,42.805,6.029,-0.008,-0.037,0.008,111.0,109.0,105.0,13.4,1505.3,326.5,-0.7,1.8,2470.442,13.33,0.037,192.2
2021-02-04T07:37:03,42.805,6.029,-0.034,-0.062,-0.004,110.0,111.0,105.0,13.4,1505.3,323.1,-0.7,1.8,2470.438,13.33,0.07,208.7
2021-02-04T07:40:03,42.805,6.029,-0.008,-0.045,-0.012,109.0,109.0,105.0,13.3,1505.3,325.3,-0.7,1.8,2470.437,13.33,0.045,190.1
2021-02-04T07:43:03,42.805,6.029,0.002,-0.038,0.009,109.0,110.0,106.0,13.4,1505.3,324.4,-0.7,1.8,2470.419,13.33,0.038,177.0
2021-02-04T07:46:03,42.805,6.029,-0.011,-0.016,0.025,109.0,110.0,106.0,13.4,1505.3,327.6,-0.7,1.9,2470.452,13.33,0.019,214.5
2021-02-04T07:49:03,42.805,6.029,-0.02,-0.022,0.002,109.0,110.0,104.0,13.3,1505.3,322.8,-0.7,1.8,2470.421,13.33,0.029,222.3
2021-02-04T07:52:03,42.805,6.029,-0.039,-0.033,0.015,111.0,110.0,105.0,13.4,1505.3,324.4,-0.7,1.8,2470.435,13.33,0.051,229.8
2021-02-04T07:55:03,42.805,6.029,-0.022,0.001,0.016,110.0,108.0,105.0,13.4,1505.3,326.5,-0.7,1.8,2470.471,13.33,0.022,272.6
2021-02-04T07:58:03,42.805,6.029,0.002,-0.03,0.006,109.0,109.0,105.0,13.3,1505.3,324.4,-0.7,1.8,2470.41,13.33,0.03,176.2
2021-02-04T08:04:03,42.805,6.029,-0.021,-0.042,-0.029,109.0,109.0,106.0,13.3,1505.3,324.5,-0.7,1.8,2470.491,13.31,0.046,206.6
2021-02-04T08:07:03,42.805,6.029,-0.024,-0.047,-0.014,109.0,108.0,104.0,13.4,1505.3,325.6,-0.7,1.9,2470.451,13.32,0.052,207.0
2021-02-04T08:10:03,42.805,6.029,-0.006,-0.021,-0.012,108.0,109.0,104.0,13.4,1505.3,325.2,-0.7,1.8,2470.502,13.32,0.021,195.9
2021-02-04T08:13:03,42.805,6.029,-0.001,-0.023,0.046,108.0,109.0,105.0,13.4,1505.3,324.5,-0.7,1.8,2470.475,13.33,0.023,182.5
2021-02-04T08:16:03,42.805,6.029,-0.007,-0.022,-0.038,109.0,110.0,103.0,13.3,1505.3,326.4,-0.7,1.9,2470.46,13.33,0.023,197.6
2021-02-04T08:19:03,42.805,6.029,0.0,0.003,0.039,109.0,110.0,104.0,13.4,1505.3,323.1,-0.7,1.8,2470.481,13.33,0.003,0.0
2021-02-04T08:22:03,42.805,6.029,0.001,-0.028,-0.008,109.0,111.0,105.0,13.4,1505.3,326.3,-0.7,1.8,2470.461,13.33,0.028,178.0
2021-02-04T08:25:03,42.805,6.029,0.008,-0.026,-0.001,109.0,110.0,105.0,13.4,1505.3,325.1,-0.7,1.8,2470.503,13.33,0.027,162.9
2021-02-04T08:28:03,42.805,6.029,-0.012,-0.042,0.028,109.0,109.0,105.0,13.4,1505.3,326.6,-0.7,1.8,2470.485,13.33,0.043,195.9
2021-02-04T08:31:03,42.805,6.029,0.01,-0.015,0.051,109.0,109.0,104.0,13.4,1505.3,326.3,-0.7,1.8,2470.484,13.33,0.018,146.3
2021-02-04T08:34:03,42.805,6.029,-0.015,-0.031,-0.028,110.0,109.0,105.0,13.4,1505.3,327.0,-0.7,1.8,2470.509,13.33,0.034,205.8
2021-02-04T08:37:03,42.805,6.029,-0.019,-0.018,-0.012,108.0,110.0,106.0,13.4,1505.3,324.9,-0.7,1.8,2470.476,13.33,0.026,226.5
2021-02-04T08:40:03,42.805,6.029,0.001,-0.012,-0.009,107.0,110.0,105.0,13.3,1505.3,324.5,-0.7,1.8,2470.472,13.33,0.012,175.2
2021-02-04T08:43:03,42.805,6.029,-0.004,-0.037,-0.018,107.0,109.0,104.0,13.4,1505.3,326.7,-0.7,1.8,2470.455,13.33,0.037,186.2
2021-02-04T08:46:03,42.805,6.029,-0.011,-0.052,-0.003,108.0,109.0,105.0,13.4,1505.3,325.5,-0.7,1.8,2470.432,13.33,0.053,191.9
2021-02-04T08:49:03,42.805,6.029,-0.018,-0.02,0.017,107.0,109.0,104.0,13.4,1505.3,327.7,-0.7,1.8,2470.527,13.33,0.026,222.0
2021-02-04T08:52:03,42.805,6.029,0.018,-0.031,-0.009,107.0,108.0,105.0,13.3,1505.3,325.3,-0.7,1.8,2470.499,13.33,0.035,149.9
2021-02-04T08:55:03,42.805,6.029,0.001,-0.02,0.007,107.0,108.0,103.0,13.4,1505.3,325.5,-0.7,1.9,2470.449,13.33,0.02,177.1
2021-02-04T08:58:03,42.805,6.029,0.011,-0.006,-0.008,107.0,109.0,103.0,13.4,1505.3,325.3,-0.7,1.8,2470.513,13.33,0.012,118.6
2021-02-04T09:04:03,42.805,6.029,0.003,-0.021,0.0,108.0,110.0,104.0,13.4,1505.3,323.0,-0.7,1.8,2470.529,13.31,0.021,171.9
2021-02-04T09:07:03,42.805,6.029,-0.001,-0.019,0.009,109.0,109.0,104.0,13.4,1505.3,323.7,-0.7,1.8,2470.53,13.32,0.019,183.0
2021-02-04T09:10:03,42.805,6.029,-0.005,-0.023,-0.023,110.0,109.0,104.0,13.3,1505.3,322.9,-0.7,1.8,2470.476,13.32,0.023,192.3
2021-02-04T09:13:03,42.805,6.029,0.008,-0.024,0.014,109.0,109.0,105.0,13.4,1505.3,322.6,-0.7,1.8,2470.528,13.32,0.025,161.6
2021-02-04T09:16:03,42.805,6.029,-0.03,-0.029,-0.011,108.0,108.0,105.0,13.4,1505.3,326.5,-0.7,1.8,2470.547,13.33,0.041,226.0
2021-02-04T09:19:03,42.805,6.029,-0.02,-0.038,-0.043,108.0,108.0,105.0,13.4,1505.3,324.5,-0.7,1.8,2470.541,13.33,0.042,207.8
2021-02-04T09:22:03,42.805,6.029,-0.031,-0.043,-0.017,107.0,109.0,105.0,13.4,1505.3,324.8,-0.7,1.8,2470.51,13.33,0.053,215.8
2021-02-04T09:25:03,42.805,6.029,-0.014,-0.016,-0.008,108.0,109.0,105.0,13.4,1505.3,327.2,-0.7,1.8,2470.564,13.33,0.021,221.2
2021-02-04T09:28:03,42.805,6.029,-0.037,-0.023,-0.01,108.0,109.0,105.0,13.4,1505.3,324.0,-0.7,1.8,2470.528,13.33,0.043,238.1
2021-02-04T09:31:03,42.805,6.029,-0.046,-0.02,-0.023,107.0,109.0,104.0,13.3,1505.3,325.8,-0.7,1.8,2470.549,13.33,0.05,246.5
2021-02-04T09:34:03,42.805,6.029,-0.026,-0.031,-0.028,108.0,109.0,104.0,13.4,1505.3,322.8,-0.7,1.8,2470.559,13.33,0.04,220.0
2021-02-04T09:37:03,42.805,6.029,0.004,-0.023,0.013,108.0,110.0,105.0,13.3,1505.3,324.3,-0.6,1.8,2470.556,13.33,0.023,170.1
2021-02-04T09:40:03,42.805,6.029,-0.016,-0.012,-0.006,109.0,109.0,103.0,13.4,1505.3,326.2,-0.7,1.8,2470.569,13.33,0.02,233.1
2021-02-04T09:43:03,42.805,6.029,-0.015,-0.037,-0.01,108.0,108.0,104.0,13.4,1505.3,323.6,-0.7,1.8,2470.53,13.33,0.039,202.1
2021-02-04T09:46:03,42.805,6.029,-0.022,-0.05,-0.042,108.0,109.0,104.0,13.3,1505.3,328.2,-0.7,1.8,2470.543,13.33,0.054,203.7
2021-02-04T09:49:03,42.805,6.029,-0.002,-0.022,0.012,107.0,109.0,104.0,13.4,1505.3,324.7,-0.7,1.8,2470.528,13.33,0.022,185.2
2021-02-04T09:52:03,42.805,6.029,-0.012,-0.03,-0.01,107.0,108.0,102.0,13.4,1505.3,325.4,-0.7,1.9,2470.499,13.33,0.032,201.8